When you browse on this site, cookies collect data to enhance your experience and personalize the content and advertising you see.
Visit our Privacy Policy to learn more. By continuing to use the site, you agree to this use of cookies and data.
  • Em Portugal
  • Lista de países
  • Para 7 dias
  • Temperatura da água
  • Mapas de satélite
  • Mapa do tempo
  • Widgets de tempo
  • user-avatar
    Iniciar Sessão

    Previsão horária em Kemer

    Hoje, 22 Abril, Segunda-feira

    Tempo Temperatura Precipitação Vento Pressão Humidade
    00:00 +12°C° 0 mm 2 m/s 750 mmHg 54%
    01:00 +11°C° 0 mm 3 m/s 750 mmHg 54%
    02:00 +10°C° 0 mm 5 m/s 749 mmHg 53%
    03:00 +11°C° 0 mm 4 m/s 749 mmHg 54%
    04:00 +11°C° 0 mm 4 m/s 749 mmHg 54%
    05:00 +10°C° 0 mm 3 m/s 749 mmHg 54%
    06:00 +12°C° 0 mm 3 m/s 749 mmHg 49%
    07:00 +14°C° 0 mm 3 m/s 750 mmHg 43%
    08:00 +16°C° 0 mm 3 m/s 749 mmHg 36%
    09:00 +17°C° 0 mm 3 m/s 750 mmHg 35%
    10:00 +18°C° 0 mm 3 m/s 750 mmHg 35%
    11:00 +19°C° 0 mm 3 m/s 750 mmHg 34%
    12:00 +19°C° 0 mm 3 m/s 750 mmHg 36%
    13:00 +20°C° 0 mm 4 m/s 750 mmHg 37%
    14:00 +20°C° 0 mm 4 m/s 750 mmHg 39%
    15:00 +19°C° 0 mm 4 m/s 750 mmHg 41%
    16:00 +19°C° 0 mm 4 m/s 750 mmHg 43%
    17:00 +19°C° 0 mm 4 m/s 750 mmHg 45%
    18:00 +17°C° 0 mm 3 m/s 751 mmHg 47%
    19:00 +16°C° 0 mm 3 m/s 751 mmHg 50%
    20:00 +15°C° 0 mm 2 m/s 751 mmHg 52%
    21:00 +14°C° 0 mm 3 m/s 752 mmHg 48%
    22:00 +14°C° 0 mm 3 m/s 752 mmHg 44%
    23:00 +14°C° 0 mm 3 m/s 753 mmHg 40%

    Amanhã, 23 Abril, Terça-feira

    Tempo Temperatura Precipitação Vento Pressão Humidade
    00:00 +15°C° 0 mm 2 m/s 753 mmHg 39%
    01:00 +15°C° 0 mm 2 m/s 753 mmHg 38%
    02:00 +15°C° 0 mm 2 m/s 753 mmHg 36%
    03:00 +15°C° 0 mm 2 m/s 753 mmHg 37%
    04:00 +15°C° 0 mm 2 m/s 753 mmHg 37%
    05:00 +15°C° 0 mm 1 m/s 753 mmHg 37%
    06:00 +16°C° 0 mm 1 m/s 754 mmHg 36%
    07:00 +19°C° 0 mm 1 m/s 754 mmHg 36%
    08:00 +20°C° 0 mm 1 m/s 755 mmHg 35%
    09:00 +20°C° 0 mm 2 m/s 755 mmHg 35%
    10:00 +21°C° 0 mm 2 m/s 755 mmHg 35%
    11:00 +21°C° 0 mm 3 m/s 755 mmHg 35%
    12:00 +22°C° 0 mm 3 m/s 755 mmHg 37%
    13:00 +22°C° 0 mm 3 m/s 755 mmHg 38%
    14:00 +22°C° 0 mm 4 m/s 755 mmHg 40%
    15:00 +22°C° 0 mm 4 m/s 755 mmHg 44%
    16:00 +21°C° 0 mm 4 m/s 755 mmHg 47%
    17:00 +21°C° 0 mm 4 m/s 755 mmHg 51%
    18:00 +19°C° 0 mm 3 m/s 755 mmHg 57%
    19:00 +18°C° 0 mm 3 m/s 756 mmHg 63%
    20:00 +17°C° 0 mm 2 m/s 756 mmHg 70%
    21:00 +17°C° 0 mm 2 m/s 757 mmHg 70%
    22:00 +18°C° 0 mm 1 m/s 757 mmHg 71%
    23:00 +16°C° 0 mm 1 m/s 757 mmHg 71%

    Depois de amanhã, 24 Abril, Quarta-feira

    Tempo Temperatura Precipitação Vento Pressão Humidade
    00:00 +16°C° 0 mm 1 m/s 757 mmHg 70%
    01:00 +16°C° 0 mm 1 m/s 757 mmHg 69%
    02:00 +18°C° 0 mm 1 m/s 757 mmHg 68%
    03:00 +18°C° 0 mm 1 m/s 757 mmHg 66%
    04:00 +19°C° 0 mm 1 m/s 756 mmHg 64%
    05:00 +18°C° 0 mm 2 m/s 756 mmHg 62%
    06:00 +20°C° 0 mm 1 m/s 756 mmHg 60%
    07:00 +21°C° 0 mm 1 m/s 756 mmHg 57%
    08:00 +22°C° 0 mm 1 m/s 757 mmHg 55%
    09:00 +23°C° 0 mm 2 m/s 757 mmHg 52%
    10:00 +24°C° 0 mm 3 m/s 757 mmHg 49%
    11:00 +26°C° 0 mm 4 m/s 757 mmHg 47%
    12:00 +26°C° 0 mm 4 m/s 757 mmHg 48%
    13:00 +26°C° 0 mm 4 m/s 757 mmHg 49%
    14:00 +26°C° 0 mm 3 m/s 757 mmHg 50%
    15:00 +25°C° 0 mm 3 m/s 756 mmHg 52%
    16:00 +25°C° 0 mm 3 m/s 756 mmHg 54%
    17:00 +24°C° 0 mm 2 m/s 756 mmHg 56%
    18:00 +23°C° 0 mm 2 m/s 756 mmHg 60%
    19:00 +21°C° 0 mm 2 m/s 756 mmHg 64%
    20:00 +20°C° 0 mm 2 m/s 756 mmHg 67%
    21:00 +21°C° 0 mm 1 m/s 756 mmHg 65%
    22:00 +21°C° 0 mm 1 m/s 755 mmHg 63%
    23:00 +21°C° 0 mm 1 m/s 755 mmHg 61%

    25 Abril, Quinta-feira

    Tempo Temperatura Precipitação Vento Pressão Humidade
    00:00 +21°C° 0 mm 1 m/s 755 mmHg 61%
    01:00 +19°C° 0 mm 0 m/s 755 mmHg 61%
    02:00 +18°C° 0 mm 0 m/s 754 mmHg 62%
    03:00 +18°C° 0 mm 0 m/s 754 mmHg 62%
    04:00 +18°C° 0 mm 0 m/s 754 mmHg 62%
    05:00 +20°C° 0 mm 1 m/s 754 mmHg 63%
    06:00 +22°C° 0 mm 1 m/s 754 mmHg 57%
    07:00 +22°C° 0 mm 0 m/s 754 mmHg 51%
    08:00 +24°C° 0 mm 0 m/s 754 mmHg 45%
    09:00 +27°C° 0 mm 1 m/s 754 mmHg 44%
    10:00 +27°C° 0 mm 2 m/s 754 mmHg 43%
    11:00 +28°C° 0 mm 3 m/s 754 mmHg 42%
    12:00 +28°C° 0 mm 3 m/s 754 mmHg 42%
    13:00 +28°C° 0 mm 3 m/s 753 mmHg 43%
    14:00 +28°C° 0 mm 4 m/s 753 mmHg 43%
    15:00 +28°C° 0 mm 3 m/s 753 mmHg 44%
    16:00 +27°C° 0 mm 3 m/s 752 mmHg 45%
    17:00 +27°C° 0 mm 3 m/s 752 mmHg 46%
    18:00 +26°C° 0 mm 2 m/s 752 mmHg 50%
    19:00 +24°C° 0 mm 2 m/s 752 mmHg 53%
    20:00 +23°C° 0 mm 1 m/s 752 mmHg 57%
    21:00 +23°C° 0 mm 1 m/s 752 mmHg 56%
    22:00 +22°C° 0 mm 1 m/s 752 mmHg 56%
    23:00 +22°C° 0 mm 1 m/s 752 mmHg 55%

    26 Abril, Sexta-feira

    Tempo Temperatura Precipitação Vento Pressão Humidade
    00:00 +22°C° 0 mm 1 m/s 751 mmHg 55%
    01:00 +21°C° 0 mm 2 m/s 751 mmHg 54%
    02:00 +21°C° 0 mm 2 m/s 750 mmHg 53%
    03:00 +22°C° 0 mm 1 m/s 750 mmHg 54%
    04:00 +22°C° 0 mm 1 m/s 750 mmHg 54%
    05:00 +22°C° 0 mm 1 m/s 750 mmHg 55%
    06:00 +23°C° 0 mm 1 m/s 750 mmHg 53%
    07:00 +22°C° 0 mm 0 m/s 750 mmHg 50%
    08:00 +23°C° 0 mm 0 m/s 751 mmHg 48%
    09:00 +25°C° 0 mm 1 m/s 751 mmHg 47%
    10:00 +26°C° 0 mm 1 m/s 750 mmHg 46%
    11:00 +27°C° 0 mm 2 m/s 750 mmHg 45%
    12:00 +26°C° 0 mm 2 m/s 750 mmHg 46%
    13:00 +26°C° 0 mm 2 m/s 749 mmHg 48%
    14:00 +26°C° 0 mm 2 m/s 749 mmHg 50%
    15:00 +26°C° 0.1 mm 2 m/s 749 mmHg 54%
    16:00 +25°C° 0.1 mm 2 m/s 748 mmHg 58%
    17:00 +24°C° 0.1 mm 2 m/s 748 mmHg 62%
    18:00 +24°C° 0 mm 1 m/s 748 mmHg 64%
    19:00 +23°C° 0 mm 1 m/s 749 mmHg 65%
    20:00 +22°C° 0 mm 1 m/s 749 mmHg 67%
    21:00 +22°C° 0 mm 1 m/s 749 mmHg 67%
    22:00 +21°C° 0 mm 1 m/s 749 mmHg 67%
    23:00 +20°C° 0 mm 2 m/s 749 mmHg 66%

    27 Abril, Sábado

    Tempo Temperatura Precipitação Vento Pressão Humidade
    00:00 +20°C° 0 mm 2 m/s 749 mmHg 65%
    01:00 +20°C° 0 mm 1 m/s 748 mmHg 64%
    02:00 +20°C° 0 mm 1 m/s 748 mmHg 63%
    03:00 +20°C° 0 mm 1 m/s 748 mmHg 62%
    04:00 +20°C° 0 mm 1 m/s 748 mmHg 60%
    05:00 +20°C° 0 mm 1 m/s 748 mmHg 59%
    06:00 +21°C° 0 mm 1 m/s 748 mmHg 56%
    07:00 +23°C° 0 mm 1 m/s 749 mmHg 53%
    08:00 +25°C° 0 mm 1 m/s 749 mmHg 51%
    09:00 +25°C° 0 mm 2 m/s 749 mmHg 51%
    10:00 +26°C° 0 mm 2 m/s 749 mmHg 51%
    11:00 +26°C° 0 mm 3 m/s 749 mmHg 51%
    12:00 +26°C° 0 mm 3 m/s 749 mmHg 51%
    13:00 +26°C° 0 mm 3 m/s 748 mmHg 52%
    14:00 +26°C° 0 mm 3 m/s 748 mmHg 52%
    15:00 +26°C° 0 mm 3 m/s 748 mmHg 55%
    16:00 +25°C° 0 mm 2 m/s 748 mmHg 57%
    17:00 +25°C° 0 mm 2 m/s 748 mmHg 59%
    18:00 +23°C° 0 mm 1 m/s 748 mmHg 65%
    19:00 +22°C° 0 mm 1 m/s 749 mmHg 71%
    20:00 +19°C° 0 mm 0 m/s 749 mmHg 77%
    21:00 +18°C° 0 mm 0 m/s 749 mmHg 77%
    22:00 +18°C° 0 mm 0 m/s 749 mmHg 78%
    23:00 +20°C° 0 mm 1 m/s 749 mmHg 78%
    Mostrar mais